PulseSat

PulseSat

COSMOS 2514 (751)

Last updated on Jan. 18, 2019, 3 a.m. UTC

1 41330U 16008A   19017.58297887 -.00000002  00000-0  00000+0 0  9990
2 41330  65.3102  44.9595 0011385 224.7759  83.1930  2.13103128 22919
UTC
Height (km)
Latitude
Longitude
Inclination
Orbital Period

Next 30 passes for location: Hong Kong

Rise time Rise Azimuth (degrees) Set time Set Azimuth (degrees) Duration Max altitude (degrees)

No matching passes for this satellites

PulseSat

PulseSat is the new satellites software and hardware trackering solution by Pulsely.
Satellite Two Line Element Set source: US Air Force Space Command

Download PulseSat for iOS
© 2017 Pulsely Limited